sat.trackr.live / text

‹ back to catalog

STARLINK-34346

NORAD 64155 · 2025-112K

PAYLOAD ACTIVE UNKNOWN

§ Identity

Operator
Country
US
Launch date
2025-05-27
Launch site
AFWTR
Launch vehicle
Mass (kg)
RCS (m²)

Purposes: comms

External: N2YO · Heavens-Above · Gunter

§ Orbital elements

Epoch: 2026-09-20T14:13:12.485568Z

Period
93.81 min
Inclination
97.2788°
Eccentricity
0.0001261
Mean motion
15.35061230 rev/d
Perigee alt
459.9 km
Apogee alt
461.6 km
Semi-major
6,838.9 km
B*
6.4058e-4
RAAN
310.6715°
Arg perigee
146.7024°
Mean anomaly
213.4299°
Rev number
7,276

§ Raw data

STARLINK-343461 64155U 25112K   26263.59250562  .00021750  00000+0  64058-3 0  99952 64155  97.2788 310.6715 0001261 146.7024 213.4299 15.35061230 72769

JSON: /api/v1/satellites/64155 · /tle

For live sub-satellite position, see the globe view (requires WebGL).

§ Visibility from observer

Set your observer location to see the next 7 days of passes ≥ 10°. The values pass through the URL so the page stays shareable.

No JS? Fill the form by hand. The geolocation button needs JavaScript.